FW1589 Weather Reports


Display with metric or nautical units.
time (UTC)temp
F
wind
direction
speed
MPH
gust
MPH
rain 1hr
in
rain 24hr
in
rain mn
in
humidity
%
barometer
mb
20260905155608 59 157 3.0 6.0 0.00 0.00 0.00 88 997.3
20260905155105 59 155 3.0 8.0 0.00 0.00 0.00 88 997.3
20260905154606 58 153 3.0 8.0 0.00 0.00 0.00 89 997.3
20260905154106 58 197 3.0 7.0 0.00 0.00 0.00 89 997.4
20260905153105 58 146 3.0 8.0 0.00 0.00 0.00 90 997.3
20260905152105 58 183 3.0 6.0 0.00 0.00 0.00 90 997.3
20260905151606 58 196 3.0 8.0 0.00 0.00 0.00 90 997.2
20260905151102 57 172 2.0 8.0 0.00 0.00 0.00 91 997.2
20260905150601 57 194 2.0 6.0 0.00 0.00 0.00 91 997.3
20260905145600 57 194 2.0 5.0 0.00 0.00 0.00 91 997.2
20260905145100 57 192 1.0 5.0 0.00 0.00 0.00 91 997.2
20260905144601 57 176 1.0 4.0 0.00 0.00 0.00 91 997.1
20260905144100 56 183 1.0 4.0 0.00 0.00 0.00 90 997.1
20260905143601 56 146 1.0 3.0 0.00 0.00 0.00 90 997.0
20260905143102 56 151 0.0 1.0 0.00 0.00 0.00 90 997.1
20260905142558 56 151 0.0 5.0 0.00 0.00 0.00 90 997.0
20260905142056 56 149 0.0 5.0 0.00 0.00 0.00 90 996.9
20260905141057 56 158 0.0 1.0 0.00 0.00 0.00 90 996.9
20260905140557 56 157 0.0 1.0 0.00 0.00 0.00 90 996.8
20260905140057 56 157 0.0 1.0 0.00 0.00 0.00 90 996.8
20260905135558 56 157 0.0 1.0 0.00 0.00 0.00 90 996.8
20260905135057 56 157 0.0 1.0 0.00 0.00 0.00 90 996.7
20260905134557 56 157 0.0 1.0 0.00 0.00 0.00 90 996.7
20260905134056 56 157 0.0 2.0 0.00 0.00 0.00 90 996.7
20260905133558 56 157 0.0 2.0 0.00 0.00 0.00 90 996.7
20260905132556 56 157 0.0 2.0 0.00 0.00 0.00 90 996.7
20260905132058 56 158 0.0 2.0 0.00 0.00 0.00 90 996.7
20260905131558 56 157 0.0 3.0 0.00 0.00 0.00 90 996.7
20260905131057 56 157 0.0 3.0 0.00 0.00 0.00 90 996.7
20260905130055 56 166 0.0 0.0 0.00 0.00 0.00 90 996.7
20260905125601 56 165 0.0 0.0 0.00 0.00 0.00 89 996.7
20260905125043 56 165 0.0 0.0 0.00 0.00 0.00 89 996.7
20260905124537 56 167 0.0 0.0 0.00 0.00 0.00 89 996.9
20260905123525 56 175 0.0 0.0 0.00 0.00 0.00 89 996.9
20260905123019 56 175 0.0 0.0 0.00 0.00 0.00 89 996.9
20260905122513 56 175 0.0 0.0 0.00 0.00 0.00 89 996.8
20260905121501 56 175 0.0 0.0 0.00 0.00 0.00 89 996.8
20260905120955 56 179 0.0 0.0 0.00 0.00 0.00 89 996.8
20260905115948 56 158 0.0 0.0 0.00 0.00 0.00 89 996.9
20260905115433 56 157 0.0 0.0 0.00 0.00 0.00 89 996.9
20260905114927 56 181 0.0 0.0 0.00 0.00 0.00 89 996.9
20260905114420 56 190 0.0 0.0 0.00 0.00 0.00 89 996.7
20260905113915 56 190 0.0 0.0 0.00 0.00 0.00 89 996.9
20260905113409 56 190 0.0 0.0 0.00 0.00 0.00 89 996.8
20260905112357 56 190 0.0 0.0 0.00 0.00 0.00 89 996.9
20260905111850 56 190 0.0 0.0 0.00 0.00 0.00 89 996.9
20260905111344 56 190 0.0 0.0 0.00 0.00 0.00 88 996.9
20260905110332 56 190 0.0 0.0 0.00 0.00 0.00 88 996.9
20260905104815 57 190 0.0 0.0 0.00 0.00 0.00 88 996.9
20260905104309 57 190 0.0 0.0 0.00 0.00 0.00 88 996.9
20260905103803 57 191 0.0 0.0 0.00 0.00 0.00 88 996.9
20260905103257 57 191 0.0 0.0 0.00 0.00 0.00 88 996.9
20260905102751 57 191 0.0 0.0 0.00 0.00 0.00 88 997.0
20260905102244 57 193 0.0 0.0 0.00 0.00 0.00 88 997.0
20260905101739 57 194 0.0 0.0 0.00 0.00 0.00 88 997.1
20260905101233 57 167 0.0 0.0 0.00 0.00 0.00 87 997.0
20260905100727 57 155 0.0 0.0 0.00 0.00 0.00 87 997.0
20260905100221 57 155 0.0 0.0 0.00 0.00 0.00 87 997.1
20260905095715 57 155 0.0 0.0 0.00 0.00 0.00 87 997.0
20260905094702 57 155 0.0 0.0 0.00 0.00 0.00 87 997.0
20260905094157 57 156 0.0 0.0 0.00 0.00 0.00 86 997.0
20260905093651 57 156 0.0 0.0 0.00 0.00 0.00 86 997.1
20260905093145 57 156 0.0 0.0 0.00 0.00 0.00 86 997.1
20260905092640 57 157 0.0 0.0 0.00 0.00 0.00 86 997.2
20260905092133 57 158 0.0 0.0 0.00 0.00 0.00 86 997.2
20260905091627 57 158 0.0 0.0 0.00 0.00 0.00 86 997.2
20260905091121 57 158 0.0 0.0 0.00 0.00 0.00 85 997.2
20260905090615 57 158 0.0 0.0 0.00 0.00 0.00 85 997.3
20260905090109 57 158 0.0 1.0 0.00 0.00 0.00 85 997.3
20260905085057 57 51 0.0 0.0 0.00 0.00 0.00 85 997.4
20260905084550 57 51 0.0 0.0 0.00 0.00 0.00 85 997.4
20260905084045 57 51 0.0 0.0 0.00 0.00 0.00 85 997.3
20260905082527 57 51 0.0 0.0 0.00 0.00 0.00 86 997.3
20260905082021 57 51 0.0 0.0 0.00 0.00 0.00 86 997.3
20260905081515 57 51 0.0 0.0 0.00 0.00 0.00 86 997.3
20260905081008 57 51 0.0 0.0 0.00 0.00 0.00 86 997.3
20260905080502 57 51 0.0 0.0 0.00 0.00 0.00 86 997.3
20260905075956 57 51 0.0 0.0 0.00 0.00 0.00 86 997.3
20260905074945 56 51 0.0 0.0 0.00 0.00 0.00 85 997.2
20260905074439 56 51 0.0 0.0 0.00 0.00 0.00 85 997.2
20260905073932 56 51 0.0 0.0 0.00 0.00 0.00 85 997.2
20260905073427 57 51 0.0 0.0 0.00 0.00 0.00 85 997.1
20260905072921 57 51 0.0 0.0 0.00 0.00 0.00 85 997.0
20260905072415 57 51 0.0 0.0 0.00 0.00 0.00 85 997.0
20260905071909 57 51 0.0 0.0 0.00 0.00 0.00 85 997.1
20260905070857 57 51 0.0 0.0 0.00 0.00 0.00 85 997.0
20260905065845 57 51 0.0 0.0 0.00 0.00 0.00 85 997.1
20260905065339 57 51 0.0 0.0 0.00 0.00 0.00 85 997.1
20260905064833 57 51 0.0 0.0 0.00 0.00 0.00 85 997.0
20260905064327 57 51 0.0 0.0 0.00 0.00 0.00 84 997.1
20260905063822 57 51 0.0 0.0 0.00 0.00 0.00 84 997.1
20260905062809 57 51 0.0 0.0 0.00 0.00 0.00 84 997.0
20260905062305 57 51 0.0 0.0 0.00 0.00 0.00 83 997.0
20260905061757 57 51 0.0 0.0 0.00 0.00 0.00 83 997.1
20260905061251 57 51 0.0 0.0 0.00 0.00 0.00 83 997.1
20260905060238 57 51 0.0 0.0 0.00 0.00 0.00 83 997.1
20260905055733 58 51 0.0 0.0 0.00 0.00 0.00 82 997.2
20260905055227 58 5 0.0 0.0 0.00 0.00 0.00 82 997.2
20260905053709 58 5 0.0 0.0 0.00 0.00 0.00 81 997.2
20260905052706 58 11 0.0 0.0 0.00 0.00 0.00 80 997.2
20260905052205 58 11 0.0 0.0 0.00 0.00 0.00 80 997.3
20260905051707 58 11 0.0 0.0 0.00 0.00 0.00 80 997.4
20260905051203 59 11 0.0 0.0 0.00 0.00 0.00 80 997.3
20260905050201 59 11 0.0 0.0 0.00 0.00 0.00 79 997.4
20260905045702 60 11 0.0 0.0 0.00 0.00 0.00 78 997.4
20260905045200 60 11 0.0 0.0 0.00 0.00 0.00 78 997.3
20260905044659 60 11 0.0 0.0 0.00 0.00 0.00 78 997.3
20260905044200 60 11 0.0 0.0 0.00 0.00 0.00 77 997.4
20260905043659 60 11 0.0 0.0 0.00 0.00 0.00 77 997.4
20260905043155 61 11 0.0 0.0 0.00 0.00 0.00 77 997.3
20260905042656 61 0 0.0 0.0 0.00 0.00 0.00 76 997.2
20260905042157 61 5 0.0 0.0 0.00 0.00 0.00 75 997.2
20260905041655 61 344 0.0 0.0 0.00 0.00 0.00 75 997.2
20260905041155 61 344 0.0 0.0 0.00 0.00 0.00 75 997.2
20260905040652 61 344 0.0 2.0 0.00 0.00 0.00 74 997.3
20260905040152 62 344 0.0 2.0 0.00 0.00 0.00 73 997.2
20260905035654 62 343 0.0 3.0 0.00 0.00 0.00 73 997.1
20260905035152 62 342 1.0 4.0 0.00 0.00 0.00 73 997.0
20260905034152 62 344 2.0 5.0 0.00 0.00 0.00 72 997.1
20260905033653 62 336 2.0 5.0 0.00 0.00 0.00 72 997.0
20260905033153 62 331 1.0 4.0 0.00 0.00 0.00 72 996.9
20260905032147 62 232 1.0 5.0 0.00 0.00 0.00 71 997.0
20260905031149 63 324 1.0 6.0 0.00 0.00 0.00 71 996.9
20260905030648 63 346 1.0 4.0 0.00 0.00 0.00 70 997.0
20260905030147 63 351 1.0 4.0 0.00 0.00 0.00 70 996.9
20260905025647 63 341 1.0 8.0 0.00 0.00 0.00 70 996.9
20260905025147 63 311 2.0 8.0 0.00 0.00 0.00 70 996.8
20260905024649 64 328 1.0 6.0 0.00 0.00 0.00 72 996.7
20260905024149 64 12 0.0 2.0 0.00 0.00 0.00 75 996.8
20260905023649 64 173 1.0 3.0 0.00 0.01 0.00 76 996.7
20260905023147 64 173 1.0 3.0 0.00 0.01 0.00 75 996.6
20260905022649 65 195 1.0 4.0 0.00 0.01 0.00 75 996.5
20260905022148 65 198 2.0 5.0 0.00 0.01 0.00 75 996.6
20260905021648 65 184 2.0 5.0 0.00 0.01 0.00 75 996.6
20260905021148 65 170 1.0 5.0 0.00 0.01 0.00 74 996.5
20260905020149 66 182 2.0 5.0 0.00 0.01 0.00 73 996.5
20260905015647 66 173 3.0 6.0 0.00 0.01 0.00 73 996.5
20260905014645 66 196 3.0 6.0 0.00 0.01 0.00 72 996.6
20260905014144 67 180 2.0 6.0 0.00 0.01 0.00 72 996.7
20260905013645 67 189 3.0 6.0 0.00 0.01 0.00 73 996.6
20260905013144 67 212 3.0 6.0 0.00 0.01 0.00 72 996.7
20260905012143 67 175 3.0 8.0 0.00 0.01 0.00 71 996.6
20260905011641 67 173 3.0 8.0 0.00 0.01 0.00 70 996.7
20260905011141 68 178 3.0 7.0 0.00 0.01 0.00 69 996.8
20260905010140 68 234 3.0 11.0 0.00 0.01 0.00 68 996.7
20260905005639 68 177 3.0 11.0 0.00 0.01 0.00 68 996.7
20260905005141 68 174 3.0 7.0 0.00 0.01 0.00 68 996.6
20260905004640 68 219 4.0 7.0 0.00 0.01 0.00 68 996.7
20260905004140 68 192 3.0 7.0 0.00 0.01 0.00 68 996.7
20260905003126 68 225 4.0 10.0 0.00 0.01 0.00 68 996.6
20260905002620 68 210 4.0 10.0 0.00 0.01 0.00 69 996.6
20260905002114 69 219 4.0 9.0 0.00 0.01 0.00 69 996.6
20260905001607 68 171 4.0 9.0 0.00 0.01 0.00 70 996.5
20260905001102 69 235 4.0 9.0 0.00 0.01 0.00 68 996.5
20260905000556 68 226 3.0 8.0 0.00 0.01 0.00 71 996.6
20260905000050 68 211 3.0 8.0 0.00 0.01 0.00 72 996.5
20260904235544 68 248 3.0 8.0 0.00 0.01 0.00 71 996.5
20260904235037 68 225 4.0 8.0 0.00 0.01 0.00 71 996.6
20260904234532 68 229 4.0 11.0 0.00 0.01 0.00 71 996.7
20260904234026 68 206 4.0 11.0 0.00 0.01 0.00 70 996.7
20260904233521 68 219 5.0 9.0 0.00 0.01 0.00 70 996.8
20260904233014 68 252 5.0 10.0 0.00 0.01 0.00 70 996.8
20260904232507 68 272 4.0 10.0 0.00 0.01 0.00 70 996.8
20260904230950 68 245 4.0 10.0 0.00 0.01 0.00 72 996.9
20260904230444 67 254 4.0 9.0 0.00 0.01 0.00 72 996.9
20260904225938 67 196 5.0 11.0 0.00 0.01 0.00 73 996.9
20260904225432 67 249 5.0 10.0 0.00 0.01 0.00 73 996.9
20260904224926 67 295 6.0 10.0 0.00 0.01 0.00 72 997.0
20260904224420 68 225 5.0 11.0 0.00 0.01 0.00 71 997.0
20260904223913 68 220 5.0 11.0 0.00 0.01 0.00 71 997.0
20260904223408 68 248 5.0 10.0 0.00 0.01 0.00 70 997.1
20260904222902 69 252 4.0 9.0 0.00 0.01 0.00 70 997.2
20260904222355 69 264 4.0 9.0 0.00 0.01 0.00 71 997.2
20260904221849 69 216 4.0 9.0 0.00 0.01 0.00 72 997.2
20260904221344 69 274 4.0 9.0 0.00 0.01 0.00 73 997.2
20260904220838 68 254 5.0 9.0 0.00 0.01 0.00 74 997.2
20260904220332 68 234 5.0 10.0 0.00 0.01 0.00 74 997.2
20260904215826 68 213 5.0 10.0 0.00 0.01 0.00 74 997.2
20260904215320 68 248 5.0 9.0 0.00 0.01 0.00 74 997.2
20260904214814 68 223 5.0 9.0 0.00 0.01 0.00 74 997.2
20260904214307 68 290 5.0 10.0 0.00 0.01 0.00 73 997.2
20260904213802 68 217 5.0 10.0 0.00 0.01 0.00 74 997.3
20260904213256 68 240 5.0 8.0 0.00 0.01 0.00 74 997.4
20260904211737 68 183 5.0 9.0 0.00 0.01 0.00 73 997.3
20260904211232 68 221 4.0 10.0 0.00 0.01 0.00 73 997.3
20260904210726 69 254 4.0 10.0 0.00 0.01 0.00 73 997.4
20260904210220 69 261 3.0 9.0 0.00 0.01 0.00 72 997.3
20260904205208 69 236 4.0 9.0 0.00 0.01 0.00 73 997.3
20260904204701 68 222 4.0 8.0 0.00 0.01 0.00 72 997.3
20260904204155 68 195 4.0 8.0 0.00 0.01 0.00 71 997.2
20260904203143 69 278 4.0 9.0 0.00 0.01 0.00 73 997.2
20260904202638 68 210 4.0 9.0 0.00 0.01 0.00 73 997.2
20260904202131 68 275 4.0 9.0 0.00 0.01 0.00 72 997.2
20260904201625 68 219 3.0 8.0 0.00 0.01 0.00 71 997.1
20260904201119 68 219 3.0 6.0 0.00 0.01 0.00 72 997.2
20260904200614 68 223 3.0 8.0 0.00 0.01 0.00 72 997.1
20260904200108 68 256 4.0 9.0 0.00 0.01 0.00 72 997.2
20260904195602 68 235 4.0 9.0 0.00 0.01 0.00 72 997.1
20260904195055 69 284 3.0 8.0 0.00 0.01 0.00 70 997.1
20260904194552 69 240 3.0 8.0 0.00 0.01 0.00 70 997.1
20260904193537 68 233 3.0 7.0 0.00 0.01 0.00 70 997.2
20260904193032 68 213 3.0 7.0 0.00 0.01 0.00 70 997.3
20260904192526 68 224 3.0 6.0 0.00 0.01 0.00 70 997.2
20260904192020 67 269 3.0 6.0 0.00 0.01 0.00 71 997.3
20260904191514 67 234 3.0 7.0 0.00 0.01 0.00 72 997.3
20260904191009 67 213 3.0 7.0 0.00 0.01 0.00 72 997.3
20260904185956 67 207 2.0 6.0 0.00 0.01 0.00 73 997.3
20260904184944 66 236 2.0 6.0 0.00 0.01 0.00 75 997.4
20260904184438 66 245 3.0 7.0 0.00 0.01 0.00 75 997.4
20260904183932 65 232 3.0 7.0 0.00 0.01 0.00 75 997.4
20260904183426 65 238 2.0 6.0 0.00 0.01 0.00 77 997.4
20260904182920 65 248 2.0 6.0 0.00 0.01 0.00 78 997.3
20260904181913 65 182 3.0 7.0 0.00 0.01 0.00 79 997.4
20260904181410 65 293 3.0 7.0 0.00 0.01 0.00 78 997.3
20260904180910 64 147 2.0 6.0 0.00 0.01 0.00 81 997.3
20260904180410 64 183 3.0 6.0 0.00 0.01 0.00 82 997.3
20260904175909 63 227 3.0 7.0 0.00 0.01 0.00 84 997.2
20260904175410 63 189 3.0 7.0 0.00 0.01 0.00 87 997.2
20260904174909 62 215 3.0 6.0 0.00 0.01 0.00 88 997.3
20260904174410 61 232 3.0 6.0 0.00 0.01 0.00 89 997.3
20260904173910 61 201 2.0 5.0 0.00 0.01 0.00 90 997.3
20260904173408 60 161 2.0 5.0 0.00 0.01 0.00 92 997.3
20260904172408 60 221 1.0 4.0 0.00 0.01 0.00 93 997.3
20260904171907 59 164 0.0 4.0 0.00 0.01 0.00 93 997.2
20260904171407 59 231 1.0 3.0 0.00 0.01 0.00 93 997.2
20260904170403 59 166 2.0 4.0 0.00 0.01 0.00 93 997.2
20260904165402 59 211 2.0 5.0 0.00 0.01 0.00 94 997.0
20260904164857 59 180 2.0 5.0 0.00 0.01 0.00 94 997.0
20260904164357 59 262 2.0 5.0 0.00 0.01 0.00 94 996.9
20260904163857 58 178 2.0 5.0 0.00 0.01 0.00 94 996.9
20260904162858 58 208 1.0 3.0 0.00 0.01 0.00 94 996.8
20260904162358 58 208 1.0 3.0 0.00 0.01 0.00 94 996.8
20260904161857 58 205 0.0 3.0 0.00 0.01 0.00 94 996.8
20260904161356 58 277 0.0 2.0 0.00 0.01 0.00 94 996.8
20260904160858 58 278 0.0 2.0 0.00 0.01 0.00 94 996.8